DateTimeUTC,F1_A11,F1_S11,BsB_S11,BsG_S11,BsR_S11,BbsB_S11,BbsG_S11,BbsR_S11,BaB_A11,BaG_A11,BaR_A11,Tu_S11,T_S11,Uu_S11,U_S11,P_S11,T1_A11
2021-05-09T09:00:00Z,00000200,21000000,,,,,,,0000.07,-000.02,0000.09,16.0,23.2,00.4,00.3,0670.5,30.9
2021-05-09T09:01:00Z,00000200,21000000,,,,,,,0000.26,0000.70,0000.19,16.1,23.2,00.6,00.4,0670.5,30.9
2021-05-09T09:02:00Z,00000200,21000000,,,,,,,0000.47,0000.18,0000.09,16.1,23.3,00.6,00.4,0670.5,30.9
2021-05-09T09:03:00Z,00000200,61000000,,,,,,,0000.25,0000.43,0000.26,16.1,23.3,00.6,00.4,0670.5,30.9
2021-05-09T09:04:00Z,00000200,41000000,0001.84,0001.10,0000.86,0000.44,0000.18,0000.06,0001.41,0000.61,0000.80,16.3,23.1,01.0,00.7,0671.4,30.9
2021-05-09T09:05:00Z,00000200,01000000,0000.85,0000.99,0000.80,0000.45,0000.14,-000.06,0000.51,0000.95,0000.24,16.4,23.0,01.1,00.7,0671.4,30.9
2021-05-09T09:06:00Z,00000200,01000000,0001.49,0000.92,0000.82,0000.33,0000.21,0000.10,0000.65,0000.43,0000.69,16.3,23.0,01.2,00.8,0671.4,30.9
2021-05-09T09:07:00Z,00000200,01000000,0001.49,0001.09,0000.90,0000.61,0000.07,0000.12,0000.79,0001.02,0000.35,16.3,23.0,01.2,00.8,0671.4,30.9
2021-05-09T09:08:00Z,00000200,01000000,0001.58,0000.99,0000.91,0000.76,0000.45,0000.04,0000.37,0000.52,0000.82,16.3,23.0,01.3,00.9,0671.4,30.9
2021-05-09T09:09:00Z,00000200,01000000,0002.03,0000.73,0000.76,0001.20,0000.13,-000.01,0001.07,0000.64,0000.36,16.3,23.0,01.4,00.9,0671.4,30.9
2021-05-09T09:10:00Z,00000200,01000000,0000.89,0001.30,0000.78,0000.58,0000.18,0000.10,0000.73,0000.62,0000.40,16.3,23.0,01.4,00.9,0671.4,30.9
2021-05-09T09:11:00Z,00000200,01000000,0001.63,0001.10,0000.75,0000.61,0000.22,0000.03,0000.61,0000.41,0000.62,16.3,23.0,01.5,01.0,0671.4,30.9
2021-05-09T09:12:00Z,00000200,01000000,0001.91,0001.16,0000.91,0000.69,0000.39,0000.02,0001.08,0001.08,0000.84,16.3,22.9,01.5,01.0,0671.4,30.9
2021-05-09T09:13:00Z,00000200,01000000,0001.15,0001.02,0000.63,0001.01,0000.21,-000.17,0001.09,0000.85,0000.10,16.3,22.9,01.6,01.0,0671.4,30.9
2021-05-09T09:14:00Z,00000200,01000000,0001.86,0001.29,0000.61,0000.41,0000.09,0000.02,0000.22,0000.18,0000.41,16.3,22.9,01.6,01.1,0671.4,30.9
2021-05-09T09:15:00Z,00000200,01000000,0001.90,0001.20,0000.67,0000.83,0000.02,0000.17,0000.92,0001.19,0000.54,16.3,22.9,01.7,01.1,0671.4,30.9
2021-05-09T09:16:00Z,00000200,01000000,0001.87,0001.05,0000.72,0000.70,0000.07,0000.19,0000.60,0000.30,0000.60,16.2,22.9,01.7,01.2,0671.4,30.9
2021-05-09T09:17:00Z,00000200,01000000,0001.68,0001.14,0000.89,0000.80,0000.09,0000.11,0000.96,0000.92,0000.46,16.2,22.9,01.8,01.2,0671.4,30.9
2021-05-09T09:18:00Z,00000200,01000000,0001.87,0000.85,0000.47,0000.40,0000.10,-000.02,0000.79,0000.54,0000.51,16.2,22.9,01.7,01.2,0671.4,30.9
2021-05-09T09:19:00Z,00000200,01000000,0001.46,0001.37,0000.39,0000.11,0000.35,0000.04,0000.57,0000.63,0000.52,16.2,22.9,01.8,01.2,0671.4,30.9
2021-05-09T09:20:00Z,00000200,01000000,0001.12,0000.81,0000.73,0000.10,0000.35,0000.17,0000.88,0000.73,0000.42,16.2,22.8,01.9,01.3,0671.4,30.9
2021-05-09T09:21:00Z,00000200,01000000,0001.33,0001.06,0000.65,0000.79,0000.36,0000.08,0000.45,0000.58,0000.38,16.2,22.8,02.0,01.3,0671.4,30.9
2021-05-09T09:22:00Z,00000200,00000000,0001.22,0001.26,0000.53,0000.38,0000.31,-000.08,0000.78,0000.42,0000.62,16.2,22.8,01.9,01.3,0671.4,30.9
2021-05-09T09:23:00Z,00000200,01000000,0001.41,0001.35,0000.82,0000.59,0000.25,-000.09,0000.51,0000.43,0000.37,16.2,22.8,01.9,01.3,0671.4,30.9
2021-05-09T09:24:00Z,00000200,00000000,0001.45,0001.14,0000.68,0000.57,0000.08,-000.19,0000.59,0000.78,0000.60,16.2,22.8,02.0,01.3,0671.4,30.9
2021-05-09T09:25:00Z,00000200,01000000,0001.67,0000.92,0000.83,0000.33,0000.13,0000.08,0001.12,0000.63,0000.14,16.2,22.8,01.9,01.3,0671.4,30.9
2021-05-09T09:26:00Z,00000200,00000000,0001.38,0000.90,0000.72,-000.20,0000.14,0000.18,0000.33,0000.43,0000.40,16.2,22.8,02.0,01.3,0671.3,30.9
2021-05-09T09:27:00Z,00000200,01000000,0001.52,0001.03,0000.33,0000.59,0000.40,-000.21,0000.37,0000.74,0000.38,16.2,22.8,02.0,01.3,0671.3,30.9
2021-05-09T09:28:00Z,00000200,00000000,0001.71,0000.99,0000.85,0000.91,0000.19,0000.27,0000.71,0000.47,0000.38,16.2,22.8,01.9,01.3,0671.3,30.9
2021-05-09T09:29:00Z,00000200,01000000,0001.58,0001.04,0000.63,-000.05,0000.10,-000.09,0000.75,0000.52,0000.65,16.3,22.9,02.0,01.3,0671.3,30.9
2021-05-09T09:30:00Z,00000200,00000000,0000.83,0000.84,0000.72,0000.22,0000.51,-000.04,0000.73,0000.69,0000.53,16.3,22.9,02.0,01.3,0671.3,30.9
2021-05-09T09:31:00Z,00000200,00000000,0001.51,0001.15,0000.58,0000.28,0000.18,0000.00,0000.71,0000.69,0000.68,16.3,22.9,02.1,01.4,0671.3,30.9
2021-05-09T09:32:00Z,00000200,00000000,0001.61,0001.06,0000.83,0000.96,0000.25,0000.20,0000.45,0000.45,0000.06,16.3,22.9,02.1,01.4,0671.3,30.9
2021-05-09T09:33:00Z,00000200,00000000,0000.69,0001.06,0001.00,0000.42,0000.02,0000.24,0000.72,0000.73,0000.31,16.3,22.9,02.0,01.4,0671.3,30.9
2021-05-09T09:34:00Z,00000200,00000000,0001.59,0000.89,0000.62,0000.23,0000.25,-000.22,0000.70,0000.59,0000.81,16.3,22.8,02.0,01.4,0671.3,30.9
2021-05-09T09:35:00Z,00000200,00000000,0001.85,0000.94,0000.72,0000.56,0000.06,-000.27,0000.72,0000.33,0000.05,16.3,22.8,02.2,01.4,0671.3,30.9
2021-05-09T09:36:00Z,00000200,00000000,0001.31,0000.95,0000.77,0000.98,0000.16,-000.32,0000.35,0000.38,0000.31,16.3,22.8,02.1,01.4,0671.3,30.9
2021-05-09T09:37:00Z,00000200,00000000,0001.58,0000.99,0000.78,0000.05,0000.28,-000.03,0000.57,0000.38,0000.46,16.3,22.8,02.0,01.4,0671.3,30.9
2021-05-09T09:38:00Z,00000200,00000000,0001.39,0000.92,0000.69,0000.61,0000.37,-000.15,0000.65,0000.58,0000.42,16.3,22.8,02.0,01.4,0671.3,30.9
2021-05-09T09:39:00Z,00000200,00000000,0001.89,0000.86,0000.70,0000.75,0000.41,0000.03,0000.34,0000.79,0000.41,16.3,22.8,02.1,01.4,0671.3,30.9
2021-05-09T09:40:00Z,00000200,00000000,0001.98,0000.76,0000.84,0001.05,0000.20,0000.13,0000.61,0000.23,0000.24,16.3,22.8,02.0,01.4,0671.3,30.9
2021-05-09T09:41:00Z,00000200,01000000,0001.05,0000.69,0000.49,0000.77,0000.01,-000.10,0000.78,0000.56,0000.62,16.3,22.8,02.0,01.3,0671.3,30.9
2021-05-09T09:42:00Z,00000200,00000000,0000.83,0000.92,0000.40,0000.41,0000.16,-000.18,0000.14,0000.50,-000.05,16.3,22.8,02.0,01.3,0671.3,30.9
2021-05-09T09:43:00Z,00000200,00000000,0000.65,0000.60,0000.44,0000.81,0000.29,0000.06,0000.68,0000.28,0000.42,16.3,22.8,02.0,01.4,0671.3,30.9
2021-05-09T09:44:00Z,00000200,00000000,0001.26,0000.60,0000.18,0000.54,0000.11,-000.02,0000.46,0000.55,0000.44,16.3,22.8,02.0,01.4,0671.3,30.9
2021-05-09T09:45:00Z,00000200,01000000,0000.86,0001.12,0000.37,0000.67,0000.30,0000.02,0000.35,0000.44,0000.44,16.3,22.7,01.9,01.3,0671.3,30.9
2021-05-09T09:46:00Z,00000200,01000000,0000.42,0000.73,0000.81,0000.73,0000.18,0000.04,0000.67,0000.56,0000.01,16.2,22.7,02.0,01.3,0671.3,30.9
2021-05-09T09:47:00Z,00000200,00000000,0001.41,0000.57,0000.44,0000.68,0000.14,0000.14,0000.39,0000.50,0000.25,16.2,22.7,02.0,01.3,0671.3,30.8
2021-05-09T09:48:00Z,00000200,01000000,0001.17,0001.27,0000.35,0000.58,0000.07,0000.09,0000.32,0000.04,0000.25,16.2,22.7,01.9,01.3,0671.3,30.8
2021-05-09T09:49:00Z,00000200,01000000,0001.86,0001.13,0000.30,0000.57,0000.08,-000.05,0000.47,0000.57,0000.11,16.2,22.7,01.8,01.2,0671.2,30.8
2021-05-09T09:50:00Z,00000200,01000000,0001.54,0000.90,0000.25,0000.20,0000.37,-000.36,0000.23,0000.11,0000.61,16.2,22.7,01.9,01.2,0671.2,30.8
2021-05-09T09:51:00Z,00000200,01000000,0001.15,0000.65,0000.62,0000.63,0000.12,0000.06,0000.96,0000.61,0000.23,16.2,22.7,01.8,01.2,0671.2,30.8
2021-05-09T09:52:00Z,00000200,01000000,0001.57,0000.93,0000.57,0000.55,0000.27,-000.17,0000.32,0000.19,0000.32,16.2,22.7,01.7,01.1,0671.2,30.8
2021-05-09T09:53:00Z,00000200,01000000,0000.76,0001.09,0000.41,0000.31,0000.13,0000.15,0000.32,0000.71,0000.34,16.2,22.7,01.8,01.2,0671.3,30.8
2021-05-09T09:54:00Z,00000200,01000000,0001.21,0000.78,0000.51,0000.47,0000.21,-000.01,0000.62,0000.04,0000.12,16.2,22.7,01.7,01.1,0671.2,30.8
2021-05-09T09:55:00Z,00000200,01000000,0001.10,0000.90,0000.51,0000.48,0000.28,0000.03,0000.67,0000.78,0000.66,16.2,22.7,01.8,01.2,0671.3,30.8
2021-05-09T09:56:00Z,00000200,01000000,0000.53,0000.62,0000.68,0000.64,0000.38,-000.23,-000.24,0000.34,0000.01,16.2,22.7,01.7,01.1,0671.2,30.8
2021-05-09T09:57:00Z,00000200,40000000,,,,,,,0000.14,-000.15,-000.04,16.2,22.7,01.6,01.1,0671.3,30.9
2021-05-09T09:58:00Z,00000200,60000000,,,,,,,0000.19,-000.05,0000.17,15.9,22.9,01.6,01.0,0670.3,30.9
2021-05-09T09:59:00Z,00000200,20000000,,,,,,,0000.07,0000.33,0000.40,15.9,23.0,01.6,01.0,0670.2,30.9
